Location: Newark
(48.8604°N, 2.3376°E)
Time: 19:24:24
(UTC+00:00)

XW-2C - Visible Passes

Search period start: 07 December 2021 00:00
Search period end: 17 December 2021 00:00
Orbit: 505 x 523 km, 97.5° (Epoch: 07 December)

Date Brightness Start Highest point End Pass type
(mag) Time Alt. Az. Time Alt. Az. Time Alt. Az.
07 Dec ? 04:37:20 10° E 04:37:44 10° E 04:38:08 10° E visible
07 Dec ? 06:08:27 10° N 06:12:16 78° WNW 06:16:05 10° SSW visible
07 Dec ? 16:51:53 10° SSE 16:55:38 86° ENE 16:59:26 10° NNW visible
08 Dec ? 05:53:07 10° NNE 05:56:57 71° ESE 06:00:44 10° S visible
08 Dec ? 16:36:38 10° SSE 16:40:19 57° ENE 16:44:04 10° N visible
08 Dec ? 18:12:51 10° WSW 18:14:43 13° W 18:16:36 10° WNW visible
09 Dec ? 05:37:51 10° NNE 05:41:34 47° E 05:45:15 10° S visible
09 Dec ? 17:56:29 10° SW 17:59:13 19° W 18:01:59 10° NW visible
10 Dec ? 05:22:42 10° NNE 05:26:10 32° E 05:29:35 10° SSE visible
10 Dec ? 06:56:56 10° NNW 07:00:03 24° WNW 07:03:09 10° WSW visible
10 Dec ? 17:40:31 10° SSW 17:43:45 27° W 17:47:02 10° NW visible
11 Dec ? 05:07:40 10° NE 05:10:43 22° E 05:13:44 10° SE visible
11 Dec ? 06:41:20 10° N 06:44:49 34° WNW 06:48:16 10° SW visible
11 Dec ? 17:24:46 10° SSW 17:28:19 40° W 17:31:55 10° NNW visible
12 Dec ? 04:52:53 10° NE 04:55:14 16° E 04:57:33 10° SE visible
12 Dec ? 06:25:50 10° N 06:29:32 49° WNW 06:33:12 10° SSW visible
12 Dec ? 17:09:12 10° S 17:12:55 60° W 17:16:42 10° NNW visible
13 Dec ? 04:38:49 10° ENE 04:39:42 11° E 04:40:34 10° E visible
13 Dec ? 06:10:23 10° N 06:14:13 74° WNW 06:18:00 10° SSW visible
13 Dec ? 16:53:47 10° SSE 16:57:33 90° SSW 17:01:23 10° NNW visible
14 Dec ? 05:55:02 10° NNE 05:58:51 74° ESE 06:02:39 10° S visible
14 Dec ? 16:38:29 10° SSE 16:42:13 60° ENE 16:45:59 10° N visible
14 Dec ? 18:14:53 10° WSW 18:16:38 13° W 18:18:23 10° WNW visible
15 Dec ? 05:39:44 10° NNE 05:43:28 49° E 05:47:09 10° S visible
15 Dec ? 17:58:26 10° SW 18:01:06 18° W 18:03:49 10° NW visible
16 Dec ? 05:24:32 10° NNE 05:28:02 33° E 05:31:29 10° SSE visible
16 Dec ? 06:58:51 10° NNW 07:01:54 23° WNW 07:04:56 10° WSW visible
16 Dec ? 17:42:24 10° SSW 17:45:37 26° W 17:48:52 10° NW visible
